| time (UTC) | temp F | wind direction | speed knots | gust knots | rain 1hr in | rain 24hr in | rain mn in | humidity % | barometer mb |
| 20260506204556 | 82 | 313 | 5.2 | 11.3 | 0.00 | 0.00 | 0.00 | 24 | 1011.1 |
| 20260506203047 | 82 | 308 | 6.1 | 12.2 | 0.00 | 0.00 | 0.00 | 24 | 1011.1 |
| 20260506201554 | 83 | 360 | 3.5 | 13.9 | 0.00 | 0.00 | 0.00 | 25 | 1010.7 |
| 20260506200040 | 84 | 325 | 4.3 | 12.2 | 0.00 | 0.00 | 0.00 | 26 | 1010.8 |
| 20260506194556 | 84 | 308 | 3.5 | 11.3 | 0.00 | 0.00 | 0.00 | 26 | 1010.8 |
| 20260506193045 | 84 | 344 | 2.6 | 10.4 | 0.00 | 0.00 | 0.00 | 28 | 1010.9 |
| 20260506191546 | 84 | 360 | 2.6 | 13.9 | 0.00 | 0.00 | 0.00 | 30 | 1011.0 |
| 20260506190043 | 84 | 0 | 0.9 | 12.2 | 0.00 | 0.00 | 0.00 | 31 | 1010.9 |
| 20260506184551 | 83 | 320 | 0.9 | 10.4 | 0.00 | 0.00 | 0.00 | 33 | 1011.1 |
| 20260506183058 | 82 | 57 | 5.2 | 15.6 | 0.00 | 0.00 | 0.00 | 33 | 1011.2 |
| 20260506181541 | 82 | 326 | 1.7 | 10.4 | 0.00 | 0.00 | 0.00 | 34 | 1011.1 |
| 20260506180047 | 81 | 304 | 2.6 | 9.6 | 0.00 | 0.00 | 0.00 | 35 | 1011.3 |
| 20260506174544 | 79 | 338 | 1.7 | 11.3 | 0.00 | 0.00 | 0.00 | 37 | 1011.3 |
| 20260506173051 | 79 | 304 | 2.6 | 7.0 | 0.00 | 0.00 | 0.00 | 38 | 1011.5 |
| 20260506171543 | 78 | 323 | 3.5 | 11.3 | 0.00 | 0.00 | 0.00 | 38 | 1011.8 |
| 20260506170106 | 77 | 17 | 2.6 | 10.4 | 0.00 | 0.00 | 0.00 | 39 | 1011.8 |
| 20260506164543 | 77 | 341 | 1.7 | 8.7 | 0.00 | 0.00 | 0.00 | 38 | 1011.8 |
| 20260506163054 | 76 | 352 | 0.9 | 9.6 | 0.00 | 0.00 | 0.00 | 39 | 1011.9 |
| 20260506161546 | 76 | 0 | 3.5 | 9.6 | 0.00 | 0.00 | 0.00 | 40 | 1012.0 |
| 20260506160045 | 74 | 92 | 2.6 | 10.4 | 0.00 | 0.00 | 0.00 | 43 | 1011.9 |
| 20260506154548 | 73 | 63 | 1.7 | 7.8 | 0.00 | 0.00 | 0.00 | 45 | 1012.2 |
| 20260506153040 | 72 | 0 | 0.0 | 7.0 | 0.00 | 0.00 | 0.00 | 45 | 1012.3 |
| 20260506151547 | 71 | 351 | 1.7 | 8.7 | 0.00 | 0.00 | 0.00 | 45 | 1012.5 |
| 20260506150046 | 70 | 0 | 0.0 | 7.8 | 0.00 | 0.00 | 0.00 | 46 | 1012.5 |
| 20260506144558 | 70 | 0 | 0.9 | 5.2 | 0.00 | 0.00 | 0.00 | 46 | 1012.4 |
| 20260506143041 | 67 | 313 | 0.9 | 3.5 | 0.00 | 0.00 | 0.00 | 51 | 1012.7 |
| 20260506141543 | 68 | 0 | 0.0 | 4.3 | 0.00 | 0.00 | 0.00 | 48 | 1012.5 |
| 20260506140045 | 63 | 0 | 0.0 | 5.2 | 0.00 | 0.00 | 0.00 | 55 | 1012.5 |
| 20260506134545 | 60 | 0 | 0.0 | 3.5 | 0.00 | 0.00 | 0.00 | 59 | 1012.5 |
| 20260506133044 | 59 | 77 | 0.0 | 1.7 | 0.00 | 0.00 | 0.00 | 60 | 1012.4 |
| 20260506131541 | 59 | 0 | 0.0 | 4.3 | 0.00 | 0.00 | 0.00 | 58 | 1012.3 |
| 20260506130041 | 60 | 0 | 0.0 | 4.3 | 0.00 | 0.00 | 0.00 | 57 | 1012.3 |
| 20260506124540 | 59 | 0 | 0.0 | 3.5 | 0.00 | 0.00 | 0.00 | 57 | 1012.3 |
| 20260506123041 | 59 | 0 | 0.0 | 1.7 | 0.00 | 0.00 | 0.00 | 60 | 1012.4 |
| 20260506121549 | 59 | 0 | 0.0 | 0.0 | 0.00 | 0.00 | 0.00 | 59 | 1012.3 |
| 20260506120045 | 59 | 0 | 0.0 | 1.7 | 0.00 | 0.00 | 0.00 | 58 | 1012.1 |
| 20260506114540 | 60 | 0 | 0.0 | 4.3 | 0.00 | 0.00 | 0.00 | 58 | 1012.1 |
| 20260506113043 | 60 | 0 | 0.0 | 0.9 | 0.00 | 0.00 | 0.00 | 59 | 1012.2 |
| 20260506111547 | 61 | 0 | 0.0 | 3.5 | 0.00 | 0.00 | 0.00 | 57 | 1012.0 |
| 20260506110046 | 61 | 0 | 0.0 | 1.7 | 0.00 | 0.00 | 0.00 | 57 | 1012.1 |
| 20260506104543 | 61 | 0 | 0.9 | 5.2 | 0.00 | 0.00 | 0.00 | 55 | 1011.8 |
| 20260506103048 | 61 | 0 | 0.0 | 0.9 | 0.00 | 0.00 | 0.00 | 55 | 1011.5 |
| 20260506101541 | 61 | 0 | 0.0 | 2.6 | 0.00 | 0.00 | 0.00 | 56 | 1011.4 |
| 20260506100041 | 62 | 0 | 0.0 | 2.6 | 0.00 | 0.00 | 0.00 | 52 | 1011.4 |
| 20260506094544 | 64 | 0 | 0.0 | 0.0 | 0.00 | 0.00 | 0.00 | 51 | 1011.2 |
| 20260506093046 | 63 | 0 | 0.9 | 4.3 | 0.00 | 0.00 | 0.00 | 51 | 1011.1 |
| 20260506091541 | 63 | 0 | 0.0 | 1.7 | 0.00 | 0.00 | 0.00 | 51 | 1011.1 |
| 20260506090049 | 64 | 0 | 0.0 | 0.0 | 0.00 | 0.00 | 0.00 | 49 | 1011.2 |
| 20260506084553 | 65 | 0 | 0.0 | 2.6 | 0.00 | 0.00 | 0.00 | 47 | 1011.2 |
| 20260506083049 | 65 | 0 | 0.0 | 3.5 | 0.00 | 0.00 | 0.00 | 48 | 1011.3 |
| 20260506081546 | 65 | 0 | 0.0 | 5.2 | 0.00 | 0.00 | 0.00 | 46 | 1011.1 |
| 20260506073053 | 66 | 190 | 0.0 | 1.7 | 0.00 | 0.00 | 0.00 | 45 | 1010.8 |
| 20260506071540 | 67 | 0 | 0.0 | 0.9 | 0.00 | 0.00 | 0.00 | 44 | 1010.6 |
| 20260506061555 | 70 | 0 | 0.0 | 2.6 | 0.00 | 0.00 | 0.00 | 39 | 1010.0 |
| 20260506050104 | 75 | 0 | 0.0 | 0.9 | 0.00 | 0.00 | 0.00 | 33 | 1009.7 |
| 20260506044546 | 76 | 224 | 0.0 | 2.6 | 0.00 | 0.00 | 0.00 | 31 | 1009.6 |
| 20260506043045 | 76 | 0 | 0.0 | 5.2 | 0.00 | 0.00 | 0.00 | 32 | 1009.6 |
| 20260506041542 | 75 | 0 | 0.9 | 6.1 | 0.00 | 0.00 | 0.00 | 33 | 1009.4 |
| 20260506040047 | 75 | 0 | 0.9 | 4.3 | 0.00 | 0.00 | 0.00 | 34 | 1009.2 |
| 20260506034548 | 75 | 0 | 0.0 | 6.1 | 0.00 | 0.00 | 0.00 | 33 | 1009.1 |
| 20260506033044 | 77 | 179 | 1.7 | 6.1 | 0.00 | 0.00 | 0.00 | 31 | 1008.8 |
| 20260506031550 | 77 | 0 | 0.0 | 6.1 | 0.00 | 0.00 | 0.00 | 32 | 1008.8 |
| 20260506030045 | 77 | 0 | 0.0 | 2.6 | 0.00 | 0.00 | 0.00 | 33 | 1008.6 |
| 20260506024553 | 80 | 0 | 0.0 | 3.5 | 0.00 | 0.00 | 0.00 | 33 | 1008.5 |
| 20260506023041 | 81 | 190 | 0.0 | 1.7 | 0.00 | 0.00 | 0.00 | 33 | 1008.4 |
| 20260506021558 | 81 | 0 | 0.0 | 5.2 | 0.00 | 0.00 | 0.00 | 35 | 1008.3 |
| 20260506020043 | 82 | 0 | 0.0 | 0.9 | 0.00 | 0.00 | 0.00 | 36 | 1008.1 |
| 20260506014546 | 83 | 0 | 0.0 | 2.6 | 0.00 | 0.00 | 0.00 | 32 | 1007.9 |
| 20260506013047 | 84 | 0 | 0.0 | 0.0 | 0.00 | 0.00 | 0.00 | 32 | 1008.0 |
| 20260506011554 | 84 | 63 | 0.0 | 4.3 | 0.00 | 0.00 | 0.00 | 31 | 1008.0 |
| 20260506010046 | 85 | 66 | 0.0 | 3.5 | 0.00 | 0.00 | 0.00 | 31 | 1008.0 |
| 20260506004541 | 85 | 0 | 0.0 | 7.0 | 0.00 | 0.00 | 0.00 | 30 | 1008.1 |
| 20260506003040 | 85 | 0 | 0.9 | 3.5 | 0.00 | 0.00 | 0.00 | 30 | 1008.1 |
| 20260506001550 | 85 | 0 | 0.0 | 7.0 | 0.00 | 0.00 | 0.00 | 30 | 1008.2 |
| 20260506000047 | 85 | 0 | 0.9 | 4.3 | 0.00 | 0.00 | 0.00 | 30 | 1008.3 |
| 20260505234542 | 86 | 71 | 0.0 | 7.8 | 0.00 | 0.00 | 0.00 | 29 | 1008.6 |
| 20260505233040 | 86 | 57 | 0.9 | 7.0 | 0.00 | 0.00 | 0.00 | 28 | 1008.7 |
| 20260505231601 | 86 | 57 | 0.0 | 5.2 | 0.00 | 0.00 | 0.00 | 28 | 1008.9 |
| 20260505230052 | 86 | 55 | 0.0 | 4.3 | 0.00 | 0.00 | 0.00 | 28 | 1009.1 |
| 20260505224543 | 86 | 67 | 0.9 | 8.7 | 0.00 | 0.00 | 0.00 | 28 | 1009.2 |
| 20260505223040 | 86 | 0 | 0.0 | 4.3 | 0.00 | 0.00 | 0.00 | 28 | 1009.4 |
| 20260505221541 | 86 | 107 | 0.0 | 5.2 | 0.00 | 0.00 | 0.00 | 27 | 1009.5 |
| 20260505220051 | 85 | 0 | 0.0 | 4.3 | 0.00 | 0.00 | 0.00 | 27 | 1009.7 |
| 20260505213042 | 85 | 66 | 0.9 | 5.2 | 0.00 | 0.00 | 0.00 | 27 | 1010.0 |
| 20260505211548 | 85 | 0 | 0.0 | 10.4 | 0.00 | 0.00 | 0.00 | 28 | 1010.2 |
| 20260505210048 | 85 | 0 | 0.0 | 4.3 | 0.00 | 0.00 | 0.00 | 27 | 1010.3 |